FW9262 Weather Reports


time (UTC)temp
C
wind
direction
speed
KPH
gust
KPH
rain 1hr
cm
rain 24hr
cm
rain mn
cm
humidity
%
barometer
mb
20260831021424 22 343 0.0 1.6 0.00 0.00 0.00 77 1013.2
20260831020920 22 288 1.6 3.2 0.00 0.00 0.00 77 1013.2
20260831020419 23 340 3.2 6.4 0.00 0.00 0.00 76 1013.2
20260831015914 23 303 3.2 4.8 0.00 0.00 0.00 75 1013.2
20260831015410 23 274 3.2 3.2 0.00 0.00 0.00 75 1012.9
20260831014910 23 339 1.6 4.8 0.00 0.00 0.00 74 1012.9
20260831014405 23 222 6.4 6.4 0.00 0.00 0.00 74 1012.9
20260831013901 23 340 1.6 3.2 0.00 0.00 0.00 75 1013.2
20260831013356 23 294 1.6 3.2 0.00 0.00 0.00 74 1013.2
20260831012850 23 338 0.0 1.6 0.00 0.00 0.00 75 1013.2
20260831012345 23 323 1.6 4.8 0.00 0.00 0.00 75 1012.9
20260831011840 23 327 3.2 4.8 0.00 0.00 0.00 75 1013.2
20260831011335 24 233 6.4 6.4 0.00 0.00 0.00 75 1012.9
20260831010831 24 344 1.6 3.2 0.00 0.00 0.00 75 1013.2
20260831010330 23 343 0.0 1.6 0.00 0.00 0.00 76 1013.2
20260831005826 23 314 1.6 4.8 0.00 0.00 0.00 76 1013.2
20260831005321 23 281 4.8 9.7 0.00 0.00 0.00 76 1013.2
20260831004816 24 309 3.2 4.8 0.00 0.00 0.00 76 1013.2
20260831004312 24 236 3.2 6.4 0.00 0.00 0.00 77 1013.2
20260831003808 25 354 6.4 11.3 0.00 0.00 0.00 75 1013.2
20260831003304 25 347 3.2 4.8 0.00 0.00 0.00 73 1012.9
20260831002803 25 333 0.0 4.8 0.00 0.00 0.00 76 1013.2
20260831002305 24 300 3.2 9.7 0.00 0.00 0.00 77 1013.2
20260831001758 25 259 6.4 11.3 0.00 0.00 0.00 75 1013.2
20260831001253 25 228 6.4 9.7 0.00 0.00 0.00 73 1013.2
20260831000751 25 329 3.2 4.8 0.00 0.00 0.00 73 1013.2
20260831000250 25 321 3.2 11.3 0.00 0.00 0.00 76 1013.2
20260830235749 25 105 4.8 9.7 0.00 0.00 0.00 76 1013.2
20260830235244 25 268 6.4 6.4 0.00 0.00 0.00 75 1013.2
20260830234739 25 282 3.2 6.4 0.00 0.00 0.00 75 1013.2
20260830234235 26 282 3.2 6.4 0.00 0.00 0.00 73 1013.2
20260830233731 26 341 0.0 3.2 0.00 0.00 0.00 73 1013.2
20260830233226 26 216 6.4 9.7 0.00 0.00 0.00 72 1012.9
20260830232721 26 246 6.4 11.3 0.00 0.00 0.00 71 1013.2
20260830232217 26 321 1.6 6.4 0.00 0.00 0.00 72 1013.2
20260830231714 27 320 3.2 4.8 0.00 0.00 0.00 70 1013.2
20260830231213 27 306 6.4 11.3 0.00 0.00 0.00 71 1013.2
20260830230708 27 332 3.2 12.9 0.00 0.00 0.00 71 1013.2
20260830230203 27 264 6.4 6.4 0.00 0.00 0.00 70 1013.2
20260830225657 27 245 1.6 3.2 0.00 0.00 0.00 70 1013.2
20260830225152 27 179 4.8 11.3 0.00 0.00 0.00 70 1013.2
20260830224650 27 272 4.8 9.7 0.00 0.00 0.00 70 1013.2
20260830224147 27 342 4.8 9.7 0.00 0.00 0.00 70 1013.6
20260830223643 27 276 3.2 12.9 0.00 0.00 0.00 71 1013.6
20260830223138 27 294 3.2 9.7 0.00 0.00 0.00 71 1013.9
20260830222632 27 12 1.6 11.3 0.00 0.00 0.00 71 1013.6
20260830222129 27 178 3.2 11.3 0.00 0.00 0.00 70 1013.6
20260830221624 28 314 1.6 4.8 0.00 0.00 0.00 67 1013.9
20260830221120 27 181 1.6 11.3 0.00 0.00 0.00 71 1013.9
20260830220615 27 267 4.8 12.9 0.00 0.00 0.00 71 1013.9
20260830220114 27 243 8.0 11.3 0.00 0.00 0.00 69 1013.9
20260830215613 27 256 3.2 4.8 0.00 0.00 0.00 70 1013.9
20260830215108 27 264 3.2 6.4 0.00 0.00 0.00 69 1014.3
20260830214603 28 285 3.2 6.4 0.00 0.00 0.00 69 1014.3
20260830214058 27 317 1.6 11.3 0.00 0.00 0.00 72 1014.3
20260830213557 28 269 4.8 12.9 0.00 0.00 0.00 69 1014.3
20260830213053 27 217 4.8 11.3 0.00 0.00 0.00 70 1014.3
20260830212549 27 276 6.4 9.7 0.00 0.00 0.00 68 1014.3
20260830212048 28 279 3.2 14.5 0.00 0.00 0.00 69 1014.6
20260830211543 27 217 4.8 9.7 0.00 0.00 0.00 68 1014.6
20260830211038 27 249 6.4 11.3 0.00 0.00 0.00 69 1014.6
20260830210533 28 303 4.8 9.7 0.00 0.00 0.00 68 1014.6
20260830210032 28 283 6.4 12.9 0.00 0.00 0.00 67 1014.6
20260830205530 27 258 6.4 11.3 0.00 0.00 0.00 68 1014.6
20260830205026 27 298 4.8 9.7 0.00 0.00 0.00 67 1014.9
20260830204525 27 264 6.4 9.7 0.00 0.00 0.00 67 1014.6
20260830204024 27 242 8.0 14.5 0.00 0.00 0.00 68 1014.6
20260830203521 28 259 3.2 11.3 0.00 0.00 0.00 67 1014.9
20260830203016 27 352 1.6 6.4 0.00 0.00 0.00 69 1014.9
20260830202515 27 198 3.2 11.3 0.00 0.00 0.00 67 1014.9
20260830202012 28 242 6.4 9.7 0.00 0.00 0.00 67 1014.6
20260830201510 28 327 3.2 6.4 0.00 0.00 0.00 67 1014.6
20260830201006 27 209 6.4 9.7 0.00 0.00 0.00 67 1014.6
20260830200506 28 245 6.4 9.7 0.00 0.00 0.00 66 1014.6
20260830200005 27 288 4.8 9.7 0.00 0.00 0.00 66 1014.6
20260830195501 27 254 6.4 12.9 0.00 0.00 0.00 66 1014.9
20260830194959 28 286 4.8 11.3 0.00 0.00 0.00 65 1014.9
20260830194459 28 243 3.2 9.7 0.00 0.00 0.00 65 1014.6
20260830193953 28 189 8.0 11.3 0.00 0.00 0.00 66 1014.9
20260830193453 27 295 6.4 9.7 0.00 0.00 0.00 67 1014.9
20260830192948 27 201 4.8 11.3 0.00 0.00 0.00 68 1014.9
20260830192443 28 245 6.4 9.7 0.00 0.00 0.00 65 1014.9
20260830191938 28 327 0.0 11.3 0.00 0.00 0.00 65 1014.9
20260830191438 28 254 3.2 9.7 0.00 0.00 0.00 64 1014.9
20260830190934 28 236 3.2 9.7 0.00 0.00 0.00 64 1015.3
20260830190429 28 271 1.6 11.3 0.00 0.00 0.00 64 1014.9
20260830185928 28 301 8.0 9.7 0.00 0.00 0.00 62 1014.9
20260830185423 28 308 0.0 4.8 0.00 0.00 0.00 62 1014.9
20260830184919 28 258 8.0 11.3 0.00 0.00 0.00 62 1014.9
20260830184418 28 288 6.4 11.3 0.00 0.00 0.00 62 1014.9
20260830183917 28 246 3.2 6.4 0.00 0.00 0.00 63 1014.9
20260830183412 28 256 4.8 6.4 0.00 0.00 0.00 62 1014.9
20260830182908 28 237 3.2 9.7 0.00 0.00 0.00 62 1014.9
20260830182403 28 274 4.8 6.4 0.00 0.00 0.00 63 1014.9
20260830181859 28 282 4.8 4.8 0.00 0.00 0.00 62 1014.9
20260830181354 28 312 4.8 11.3 0.00 0.00 0.00 63 1015.3
20260830180849 28 303 6.4 6.4 0.00 0.00 0.00 62 1014.9
20260830180343 28 295 1.6 6.4 0.00 0.00 0.00 63 1014.9
20260830175842 28 280 3.2 11.3 0.00 0.00 0.00 63 1014.9
20260830175337 28 190 3.2 9.7 0.00 0.00 0.00 64 1015.3
20260830174832 29 320 4.8 9.7 0.00 0.00 0.00 62 1015.3
20260830174327 30 258 0.0 4.8 0.00 0.00 0.00 58 1014.9
20260830173827 30 343 1.6 4.8 0.00 0.00 0.00 58 1014.9
20260830173322 30 81 3.2 3.2 0.00 0.00 0.00 56 1014.9
20260830172819 29 41 1.6 3.2 0.00 0.00 0.00 57 1014.9
20260830172315 28 308 1.6 3.2 0.00 0.00 0.00 58 1014.9
20260830171811 29 301 1.6 3.2 0.00 0.00 0.00 56 1014.9
20260830171306 29 46 1.6 3.2 0.00 0.00 0.00 54 1014.9
20260830170801 29 46 1.6 3.2 0.00 0.00 0.00 57 1014.6
20260830170300 28 356 0.0 3.2 0.00 0.00 0.00 59 1014.9
20260830165759 28 359 1.6 3.2 0.00 0.00 0.00 60 1014.6
20260830165255 28 33 1.6 3.2 0.00 0.00 0.00 60 1014.9
20260830164751 28 354 0.0 3.2 0.00 0.00 0.00 59 1014.6
20260830164247 28 216 1.6 3.2 0.00 0.00 0.00 58 1014.9
20260830163743 28 347 0.0 3.2 0.00 0.00 0.00 59 1014.9
20260830163239 28 12 1.6 3.2 0.00 0.00 0.00 58 1014.9
20260830162733 28 340 0.0 4.8 0.00 0.00 0.00 60 1014.9
20260830162229 28 70 3.2 4.8 0.00 0.00 0.00 60 1014.9
20260830161725 28 348 0.0 3.2 0.00 0.00 0.00 63 1014.9
20260830161219 27 353 1.6 6.4 0.00 0.00 0.00 65 1014.9
20260830160715 27 19 0.0 0.0 0.00 0.00 0.00 65 1014.9
20260830160215 27 356 3.2 3.2 0.00 0.00 0.00 65 1014.9
20260830155711 27 350 0.0 3.2 0.00 0.00 0.00 67 1014.9
20260830155207 27 16 0.0 1.6 0.00 0.00 0.00 67 1014.9
20260830154702 26 20 0.0 4.8 0.00 0.00 0.00 69 1014.9
20260830154157 26 346 0.0 3.2 0.00 0.00 0.00 70 1014.9
20260830153654 26 48 3.2 4.8 0.00 0.00 0.00 70 1014.9
20260830153154 26 359 0.0 1.6 0.00 0.00 0.00 70 1014.9
20260830152653 26 30 3.2 3.2 0.00 0.00 0.00 70 1014.9
20260830152152 26 349 1.6 3.2 0.00 0.00 0.00 71 1015.3
20260830151648 25 338 1.6 4.8 0.00 0.00 0.00 73 1015.3
20260830151147 25 344 3.2 3.2 0.00 0.00 0.00 74 1014.9
20260830150642 25 37 1.6 4.8 0.00 0.00 0.00 74 1015.3
20260830150136 25 37 1.6 1.6 0.00 0.00 0.00 73 1015.3
20260830145636 25 351 1.6 3.2 0.00 0.00 0.00 75 1014.9
20260830145131 24 359 1.6 1.6 0.00 0.00 0.00 77 1014.9
20260830144626 23 351 0.0 1.6 0.00 0.00 0.00 79 1014.9
20260830144122 23 357 1.6 1.6 0.00 0.00 0.00 83 1015.3
20260830143618 22 340 0.0 1.6 0.00 0.00 0.00 87 1014.9
20260830143116 22 350 0.0 1.6 0.00 0.00 0.00 90 1014.9
20260830142612 21 342 0.0 0.0 0.00 0.00 0.00 92 1014.9
20260830142106 21 347 0.0 0.0 0.00 0.00 0.00 92 1014.9
20260830141602 21 342 0.0 0.0 0.00 0.00 0.00 92 1014.9
20260830141057 21 346 0.0 0.0 0.00 0.00 0.00 92 1014.9
20260830140551 20 340 0.0 0.0 0.00 0.00 0.00 92 1014.9
20260830140047 20 339 0.0 0.0 0.00 0.00 0.00 92 1014.6
20260830135541 20 342 0.0 0.0 0.00 0.00 0.00 92 1014.6
20260830135036 20 338 0.0 0.0 0.00 0.00 0.00 92 1014.6
20260830134533 20 346 0.0 0.0 0.00 0.00 0.00 91 1014.6
20260830134027 20 345 0.0 0.0 0.00 0.00 0.00 91 1014.6
20260830133523 20 348 0.0 0.0 0.00 0.00 0.00 91 1014.3
20260830133018 20 339 0.0 0.0 0.00 0.00 0.00 91 1014.3
20260830132514 20 335 0.0 0.0 0.00 0.00 0.00 91 1014.3
20260830132014 20 339 0.0 0.0 0.00 0.00 0.00 91 1014.3
20260830131513 20 338 0.0 0.0 0.00 0.00 0.00 91 1014.3
20260830131008 20 339 0.0 0.0 0.00 0.00 0.00 91 1014.3
20260830130503 20 336 0.0 0.0 0.00 0.00 0.00 91 1014.3
20260830130003 20 340 0.0 0.0 0.00 0.00 0.00 91 1014.3
20260830125458 20 340 0.0 0.0 0.00 0.00 0.00 91 1014.3
20260830124956 21 340 0.0 0.0 0.00 0.00 0.00 91 1014.3
20260830124451 21 336 0.0 0.0 0.00 0.00 0.00 91 1013.9
20260830123947 20 339 0.0 0.0 0.00 0.00 0.00 90 1013.9
20260830123444 20 343 0.0 0.0 0.00 0.00 0.00 90 1013.9
20260830122942 20 343 0.0 0.0 0.00 0.00 0.00 90 1013.9
20260830122441 21 344 0.0 0.0 0.00 0.00 0.00 90 1014.3
20260830121936 21 338 0.0 0.0 0.00 0.00 0.00 90 1014.3
20260830121431 21 336 0.0 0.0 0.00 0.00 0.00 90 1013.9
20260830120926 21 338 0.0 0.0 0.00 0.00 0.00 90 1013.9
20260830120421 21 338 0.0 0.0 0.00 0.00 0.00 90 1013.9
20260830115918 21 338 0.0 0.0 0.00 0.00 0.00 90 1013.9
20260830115414 21 336 0.0 0.0 0.00 0.00 0.00 90 1013.9
20260830114909 21 336 0.0 0.0 0.00 0.00 0.00 90 1013.9
20260830114406 21 342 0.0 0.0 0.00 0.00 0.00 89 1013.6
20260830113905 21 342 0.0 0.0 0.00 0.00 0.00 89 1013.6
20260830113401 21 338 0.0 0.0 0.00 0.00 0.00 89 1013.6
20260830112856 21 338 0.0 0.0 0.00 0.00 0.00 89 1013.9
20260830112352 21 341 0.0 0.0 0.00 0.00 0.00 89 1013.6
20260830111848 21 341 0.0 0.0 0.00 0.00 0.00 89 1013.6
20260830111343 21 336 0.0 0.0 0.00 0.00 0.00 89 1013.6
20260830110843 21 339 0.0 0.0 0.00 0.00 0.00 89 1013.9
20260830110340 21 339 0.0 0.0 0.00 0.00 0.00 89 1013.9
20260830105838 21 338 0.0 0.0 0.00 0.00 0.00 89 1013.9
20260830105335 21 336 0.0 0.0 0.00 0.00 0.00 89 1013.6
20260830104831 21 338 0.0 0.0 0.00 0.00 0.00 89 1013.6
20260830104328 21 339 0.0 0.0 0.00 0.00 0.00 88 1013.9
20260830103826 21 341 0.0 0.0 0.00 0.00 0.00 88 1013.9
20260830103323 21 345 0.0 0.0 0.00 0.00 0.00 88 1013.6
20260830102821 21 336 0.0 0.0 0.00 0.00 0.00 89 1013.9
20260830102317 21 338 0.0 0.0 0.00 0.00 0.00 89 1013.6
20260830101812 21 339 0.0 0.0 0.00 0.00 0.00 89 1013.9
20260830101308 21 300 0.0 1.6 0.00 0.00 0.00 89 1013.9
20260830100807 21 297 0.0 1.6 0.00 0.00 0.00 90 1013.9
20260830100301 21 339 0.0 0.0 0.00 0.00 0.00 90 1013.6
20260830095800 21 334 0.0 1.6 0.00 0.00 0.00 90 1013.6
20260830095257 21 338 0.0 1.6 0.00 0.00 0.00 90 1013.6
20260830094752 21 345 0.0 3.2 0.00 0.00 0.00 90 1013.9
20260830094248 21 336 0.0 0.0 0.00 0.00 0.00 90 1013.6
20260830093743 21 338 0.0 0.0 0.00 0.00 0.00 90 1013.6
20260830093239 21 340 0.0 0.0 0.00 0.00 0.00 89 1013.6
20260830092738 21 341 0.0 0.0 0.00 0.00 0.00 89 1013.6
20260830092236 21 337 0.0 0.0 0.00 0.00 0.00 89 1013.9
20260830091732 21 328 0.0 0.0 0.00 0.00 0.00 89 1013.6
20260830091231 21 342 0.0 0.0 0.00 0.00 0.00 89 1013.9
20260830090730 21 338 0.0 0.0 0.00 0.00 0.00 88 1013.9
20260830090226 21 339 0.0 0.0 0.00 0.00 0.00 88 1013.6
20260830085725 21 338 0.0 0.0 0.00 0.00 0.00 88 1013.6
20260830085221 21 342 0.0 0.0 0.00 0.00 0.00 88 1013.6
20260830084716 21 334 0.0 0.0 0.00 0.00 0.00 88 1013.9
20260830084212 22 349 0.0 0.0 0.00 0.00 0.00 87 1013.6
20260830083707 22 342 0.0 0.0 0.00 0.00 0.00 87 1013.6
20260830083202 22 348 0.0 0.0 0.00 0.00 0.00 87 1013.6
20260830082701 22 351 0.0 0.0 0.00 0.00 0.00 87 1013.6
20260830082157 22 347 0.0 0.0 0.00 0.00 0.00 87 1013.6
20260830081653 22 343 0.0 0.0 0.00 0.00 0.00 86 1013.6
20260830081152 22 342 0.0 0.0 0.00 0.00 0.00 86 1013.6
20260830080647 22 335 0.0 0.0 0.00 0.00 0.00 86 1013.9
20260830080143 22 322 0.0 0.0 0.00 0.00 0.00 86 1013.6
20260830075642 22 351 0.0 0.0 0.00 0.00 0.00 85 1013.9
20260830075137 22 338 0.0 0.0 0.00 0.00 0.00 85 1013.6
20260830074633 22 340 0.0 0.0 0.00 0.00 0.00 85 1013.9
20260830074129 22 344 0.0 1.6 0.00 0.00 0.00 84 1013.6
20260830073625 22 341 0.0 1.6 0.00 0.00 0.00 84 1013.6
20260830073120 22 336 0.0 0.0 0.00 0.00 0.00 84 1013.6
20260830072615 22 320 0.0 1.6 0.00 0.00 0.00 84 1013.6
20260830072115 22 341 0.0 4.8 0.00 0.00 0.00 84 1013.9
20260830071610 22 291 0.0 1.6 0.00 0.00 0.00 83 1013.9
20260830071108 22 343 0.0 0.0 0.00 0.00 0.00 83 1013.9
20260830070603 22 344 0.0 0.0 0.00 0.00 0.00 83 1013.9
20260830070058 22 336 0.0 0.0 0.00 0.00 0.00 83 1013.6
20260830065557 22 340 0.0 0.0 0.00 0.00 0.00 83 1013.6
20260830065055 22 333 0.0 0.0 0.00 0.00 0.00 82 1013.9
20260830064550 22 341 0.0 0.0 0.00 0.00 0.00 82 1013.6
20260830064045 22 342 0.0 0.0 0.00 0.00 0.00 82 1013.2
20260830063539 22 341 0.0 1.6 0.00 0.00 0.00 82 1013.2
20260830063039 21 349 0.0 3.2 0.00 0.00 0.00 83 1013.2
20260830062539 21 341 0.0 0.0 0.00 0.00 0.00 83 1013.6
20260830062033 22 336 0.0 0.0 0.00 0.00 0.00 83 1013.2
20260830061528 22 326 0.0 0.0 0.00 0.00 0.00 84 1013.2
20260830061025 22 339 0.0 0.0 0.00 0.00 0.00 84 1013.2
20260830060520 22 354 1.6 1.6 0.00 0.00 0.00 84 1013.2
20260830060017 22 278 3.2 3.2 0.00 0.00 0.00 84 1013.2
20260830055512 22 348 0.0 1.6 0.00 0.00 0.00 84 1012.9
20260830055008 22 335 0.0 1.6 0.00 0.00 0.00 84 1013.2
20260830054503 22 329 1.6 1.6 0.00 0.00 0.00 84 1013.2
20260830053959 22 327 0.0 3.2 0.00 0.00 0.00 84 1013.2
20260830053454 22 327 0.0 1.6 0.00 0.00 0.00 84 1013.2
20260830052952 22 328 1.6 4.8 0.00 0.00 0.00 83 1013.2
20260830052448 22 309 1.6 1.6 0.00 0.00 0.00 82 1013.2
20260830051943 22 338 0.0 1.6 0.00 0.00 0.00 82 1013.2
20260830051438 22 261 0.0 1.6 0.00 0.00 0.00 80 1013.2
20260830050938 22 332 1.6 3.2 0.00 0.00 0.00 79 1013.2
20260830050434 22 302 1.6 1.6 0.00 0.00 0.00 79 1013.2
20260830045931 22 205 1.6 4.8 0.00 0.00 0.00 79 1013.2
20260830045427 22 329 1.6 4.8 0.00 0.00 0.00 79 1013.2
20260830044926 22 222 1.6 3.2 0.00 0.00 0.00 80 1013.6
20260830044422 22 341 0.0 1.6 0.00 0.00 0.00 79 1013.6
20260830043916 22 342 0.0 0.0 0.00 0.00 0.00 79 1013.2
20260830043411 22 344 0.0 0.0 0.00 0.00 0.00 79 1013.2
20260830042909 22 337 0.0 1.6 0.00 0.00 0.00 79 1013.2
20260830042358 22 343 0.0 0.0 0.00 0.00 0.00 79 1013.2
20260830041857 22 337 0.0 0.0 0.00 0.00 0.00 79 1012.9
20260830041356 22 319 1.6 1.6 0.00 0.00 0.00 79 1013.2
20260830040852 22 331 1.6 3.2 0.00 0.00 0.00 80 1013.2
20260830040348 23 311 0.0 1.6 0.00 0.00 0.00 81 1013.2
20260830035847 23 330 0.0 1.6 0.00 0.00 0.00 81 1012.9
20260830035345 23 305 1.6 1.6 0.00 0.00 0.00 80 1013.2
20260830034841 23 334 0.0 3.2 0.00 0.00 0.00 80 1013.2
20260830034336 23 266 3.2 6.4 0.00 0.00 0.00 80 1013.2
20260830033832 22 312 1.6 6.4 0.00 0.00 0.00 81 1012.9
20260830033331 22 323 1.6 4.8 0.00 0.00 0.00 82 1013.2
20260830032827 23 290 1.6 1.6 0.00 0.00 0.00 83 1012.9
20260830032327 23 311 0.0 3.2 0.00 0.00 0.00 82 1012.9
20260830031822 23 257 3.2 4.8 0.00 0.00 0.00 81 1012.9
20260830031317 23 325 3.2 6.4 0.00 0.00 0.00 81 1012.9
20260830030807 23 286 3.2 3.2 0.00 0.00 0.00 80 1012.6
20260830030303 23 311 1.6 4.8 0.00 0.00 0.00 80 1012.9
20260830025802 23 273 3.2 4.8 0.00 0.00 0.00 78 1012.6
20260830025301 23 256 4.8 4.8 0.00 0.00 0.00 77 1012.6
20260830024801 23 276 3.2 4.8 0.00 0.00 0.00 77 1012.6
20260830024256 23 265 3.2 3.2 0.00 0.00 0.00 76 1012.6
20260830023754 23 241 3.2 6.4 0.00 0.00 0.00 76 1012.6
20260830023253 23 68 4.8 6.4 0.00 0.00 0.00 77 1012.6
20260830022752 23 287 6.4 9.7 0.00 0.00 0.00 77 1012.6
20260830022247 23 276 4.8 6.4 0.00 0.00 0.00 79 1012.6
20260830021742 23 283 3.2 4.8 0.00 0.00 0.00 80 1012.6